Weather History for Golovin, AK

Change the Weather History Date:

Sunday, August 25, 2013

  Actual Average Record
Temperature  
Mean Temperature 53 °F -  
Max Temperature 62 °F - - ()
Min Temperature 44 °F - - ()
Degree Days  
Heating Degree Days 12    
Growing Degree Days 3 (Base 50)    
Moisture  
Dew Point 41 °F    
Average Humidity 64    
Maximum Humidity 81    
Minimum Humidity 45    
Precipitation  
Precipitation 0.00 in - - ()
Sea Level Pressure  
Sea Level Pressure 29.71 in    
Wind  
Wind Speed 11 mph (East)    
Max Wind Speed 24 mph    
Max Gust Speed 30 mph    
Visibility 10 miles    
Events      
T = Trace of Precipitation, MM = Missing Value Source: NWS Daily Summary

Daily Weather History Graph

Daily Weather History Graph

Search for Another Location

Airport:

Trip Planner

Search our weather history database for the weather conditions in past years. The results will help you decide how hot, cold, wet, or windy it might be!

Date:

Astronomy

Aug. 25, 2013 Rise Set
Actual Time 7:13 AM AKDT 10:32 PM AKDT
Civil Twilight 6:15 AM AKDT 11:30 PM AKDT
Nautical Twilight 4:45 AM AKDT 12:57 AM AKDT
Astronomical Twilight Sun does not rise Sun does not rise
Moon 10:49 PM AKDT (8/25) 2:45 PM AKDT (8/25)
Length of Visible Light 17h 14m
Length of Day
15h 19m
Waning Gibbous, 74% of the Moon is Illuminated
Aug 25
Waning Gibbous
Aug 28
Last Quarter
Sep 5
New
Sep 12
First Quarter
Sep 19
Full

Hourly Weather History & Observations

Time (AKDT) Temp. Windchill Dew Point Humidity Pressure Visibility Wind Dir Wind Speed Gust Speed Precip Events Conditions
12:16 AM 44.6 °F 41.4 °F 37.4 °F 76% 29.86 in 10.0 mi NNE 5.8 mph - N/A   Clear
12:36 AM 44.6 °F 41.4 °F 37.4 °F 76% 29.85 in 10.0 mi NNE 5.8 mph - N/A   Clear
12:56 AM 46.4 °F 45.2 °F 37.4 °F 71% 29.85 in 10.0 mi North 3.5 mph - N/A   Clear
1:16 AM 46.4 °F 42.9 °F 37.4 °F 71% 29.85 in 10.0 mi ENE 6.9 mph - N/A   Clear
1:36 AM 46.4 °F 42.4 °F 37.4 °F 71% 29.84 in 10.0 mi NE 8.1 mph - N/A   Clear
1:56 AM 46.4 °F 43.5 °F 37.4 °F 71% 29.83 in 10.0 mi NE 5.8 mph - N/A   Clear
2:16 AM 51.8 °F - 39.2 °F 62% 29.82 in 10.0 mi East 8.1 mph 18.4 mph N/A   Clear
2:36 AM 50.0 °F - 37.4 °F 62% 29.82 in 10.0 mi SE 3.5 mph - N/A   Clear
2:56 AM 48.2 °F - 39.2 °F 71% 29.81 in 10.0 mi ENE 4.6 mph - N/A   Clear
3:16 AM 48.2 °F - 39.2 °F 71% 29.80 in 10.0 mi East 8.1 mph - N/A   Clear
3:36 AM 48.2 °F - 37.4 °F 66% 29.80 in 10.0 mi East 13.8 mph - N/A   Clear
3:56 AM 46.4 °F 40.7 °F 39.2 °F 76% 29.79 in 10.0 mi East 12.7 mph - N/A   Clear
4:16 AM 46.4 °F 41.1 °F 39.2 °F 76% 29.79 in 10.0 mi East 11.5 mph - N/A   Clear
4:36 AM 48.2 °F - 39.2 °F 71% 29.79 in 10.0 mi East 12.7 mph - N/A   Clear
4:56 AM 46.4 °F 40.7 °F 39.2 °F 76% 29.78 in 10.0 mi East 12.7 mph - N/A   Clear
5:16 AM 48.2 °F - 39.2 °F 71% 29.77 in 10.0 mi East 12.7 mph - N/A   Clear
5:36 AM 48.2 °F - 39.2 °F 71% 29.77 in 10.0 mi East 13.8 mph - N/A   Clear
5:56 AM 46.4 °F 40.7 °F 39.2 °F 76% 29.76 in 10.0 mi East 12.7 mph - N/A   Clear
6:16 AM 46.4 °F 40.7 °F 39.2 °F 76% 29.76 in 10.0 mi East 12.7 mph - N/A   Clear
6:36 AM 46.4 °F 40.4 °F 41.0 °F 81% 29.76 in 10.0 mi East 13.8 mph - N/A   Clear
6:56 AM 46.4 °F 40.7 °F 41.0 °F 81% 29.75 in 10.0 mi East 12.7 mph - N/A   Clear
7:16 AM 46.4 °F 40.7 °F 41.0 °F 81% 29.75 in 10.0 mi East 12.7 mph - N/A   Clear
7:36 AM 46.4 °F 40.7 °F 41.0 °F 81% 29.75 in 10.0 mi East 12.7 mph - N/A   Clear
7:56 AM 46.4 °F 40.7 °F 39.2 °F 76% 29.74 in 10.0 mi ENE 12.7 mph - N/A   Clear
8:16 AM 46.4 °F 41.1 °F 41.0 °F 81% 29.73 in 10.0 mi ENE 11.5 mph - N/A   Clear
8:36 AM 48.2 °F - 41.0 °F 76% 29.73 in 10.0 mi ENE 13.8 mph - N/A   Clear
8:56 AM 48.2 °F - 41.0 °F 76% 29.73 in 10.0 mi ENE 11.5 mph - N/A   Clear
9:16 AM 48.2 °F - 41.0 °F 76% 29.72 in 10.0 mi East 11.5 mph - N/A   Clear
9:36 AM 50.0 °F - 41.0 °F 71% 29.71 in 10.0 mi East 13.8 mph 18.4 mph N/A   Clear
9:56 AM 51.8 °F - 41.0 °F 67% 29.71 in 10.0 mi East 15.0 mph - N/A   Clear
10:16 AM 53.6 °F - 41.0 °F 62% 29.70 in 10.0 mi East 17.3 mph 23.0 mph N/A   Clear
10:36 AM 53.6 °F - 42.8 °F 67% 29.70 in 10.0 mi East 20.7 mph 25.3 mph N/A   Clear
10:56 AM 53.6 °F - 41.0 °F 62% 29.70 in 10.0 mi East 19.6 mph 26.5 mph N/A   Clear
11:16 AM 53.6 °F - 42.8 °F 67% 29.70 in 10.0 mi East 15.0 mph 21.9 mph N/A   Clear
11:36 AM 55.4 °F - 42.8 °F 63% 29.70 in 10.0 mi East 17.3 mph 25.3 mph N/A   Clear
11:56 AM 55.4 °F - 42.8 °F 63% 29.70 in 10.0 mi East 18.4 mph 26.5 mph N/A   Clear
12:16 PM 57.2 °F - 42.8 °F 59% 29.69 in 10.0 mi East 19.6 mph 23.0 mph N/A   Clear
12:36 PM 55.4 °F - 42.8 °F 63% 29.69 in 10.0 mi East 18.4 mph 23.0 mph N/A   Clear
12:56 PM 57.2 °F - 42.8 °F 59% 29.69 in 10.0 mi East 21.9 mph 26.5 mph N/A   Clear
1:16 PM 57.2 °F - 44.6 °F 63% 29.68 in 10.0 mi ESE 21.9 mph 29.9 mph N/A   Clear
1:36 PM 59.0 °F - 42.8 °F 55% 29.68 in 10.0 mi East 21.9 mph 27.6 mph N/A   Clear
1:56 PM 60.8 °F - 42.8 °F 52% 29.68 in 10.0 mi ESE 24.2 mph 29.9 mph N/A   Clear
2:16 PM 60.8 °F - 42.8 °F 52% 29.68 in 10.0 mi East 20.7 mph 28.8 mph N/A   Clear
2:36 PM 60.8 °F - 42.8 °F 52% 29.68 in 10.0 mi East 19.6 mph 24.2 mph N/A   Clear
2:56 PM 60.8 °F - 42.8 °F 52% 29.68 in 10.0 mi East 18.4 mph 26.5 mph N/A   Clear
3:16 PM 60.8 °F - 42.8 °F 52% 29.68 in 10.0 mi East 17.3 mph 24.2 mph N/A   Clear
3:36 PM 60.8 °F - 42.8 °F 52% 29.68 in 10.0 mi ESE 19.6 mph 23.0 mph N/A   Clear
3:56 PM 60.8 °F - 42.8 °F 52% 29.68 in 10.0 mi ESE 16.1 mph 27.6 mph N/A   Clear
4:16 PM 62.6 °F - 41.0 °F 45% 29.67 in 10.0 mi ESE 16.1 mph - N/A   Clear
4:36 PM 62.6 °F - 42.8 °F 48% 29.67 in 10.0 mi ESE 17.3 mph 20.7 mph N/A   Clear
4:56 PM 62.6 °F - 44.6 °F 52% 29.66 in 10.0 mi ESE 15.0 mph - N/A   Clear
5:16 PM 62.6 °F - 41.0 °F 45% 29.66 in 10.0 mi ESE 16.1 mph 24.2 mph N/A   Clear
5:36 PM 60.8 °F - 41.0 °F 48% 29.66 in 10.0 mi ESE 16.1 mph 23.0 mph N/A   Clear
5:56 PM 60.8 °F - 42.8 °F 52% 29.66 in 10.0 mi ESE 16.1 mph 20.7 mph N/A   Clear
6:16 PM 60.8 °F - 42.8 °F 52% 29.66 in 10.0 mi ESE 13.8 mph - N/A   Clear
6:36 PM 60.8 °F - 44.6 °F 55% 29.65 in 10.0 mi ESE 13.8 mph - N/A   Clear
6:56 PM 62.6 °F - 41.0 °F 45% 29.65 in 10.0 mi ESE 16.1 mph - N/A   Clear
7:16 PM 60.8 °F - 41.0 °F 48% 29.65 in 10.0 mi East 11.5 mph - N/A   Clear
7:36 PM 60.8 °F - 42.8 °F 52% 29.65 in 10.0 mi ESE 13.8 mph 18.4 mph N/A   Clear
7:56 PM 62.6 °F - 42.8 °F 48% 29.64 in 10.0 mi East 10.4 mph - N/A   Clear
8:16 PM 60.8 °F - 42.8 °F 52% 29.64 in 10.0 mi East 11.5 mph - N/A   Clear
8:36 PM 60.8 °F - 42.8 °F 52% 29.64 in 10.0 mi East 10.4 mph - N/A   Clear
8:56 PM 59.0 °F - 44.6 °F 59% 29.64 in 10.0 mi East 8.1 mph - N/A   Clear
9:16 PM 57.2 °F - 44.6 °F 63% 29.64 in 10.0 mi East 8.1 mph - N/A   Clear
9:36 PM 57.2 °F - 44.6 °F 63% 29.64 in 10.0 mi East 9.2 mph - N/A   Clear
9:56 PM 55.4 °F - 42.8 °F 63% 29.65 in 10.0 mi East 10.4 mph - N/A   Clear
10:16 PM 55.4 °F - 44.6 °F 67% 29.65 in 10.0 mi East 10.4 mph - N/A   Clear
10:36 PM 55.4 °F - 44.6 °F 67% 29.65 in 10.0 mi East 10.4 mph - N/A   Clear
10:56 PM 55.4 °F - 44.6 °F 67% 29.65 in 10.0 mi East 10.4 mph - N/A   Partly Cloudy
11:16 PM 55.4 °F - 44.6 °F 67% 29.65 in 10.0 mi East 10.4 mph - N/A   Mostly Cloudy
11:36 PM 55.4 °F - 46.4 °F 72% 29.64 in 10.0 mi East 11.5 mph - N/A   Mostly Cloudy
11:56 PM 55.4 °F - 44.6 °F 67% 29.65 in 10.0 mi East 10.4 mph - N/A   Mostly Cloudy